Regional Weather Roundup
Issued by NWS Mobile, AL

Home | Current Version | Previous Version | Text Only | Print | Product List | Glossary On
Versions: 1 2 3 4 5 6 7 8 9 10 11 12 13 14 15 16 17 18 19 20 21 22 23 24 25 26 27 28 29 30 31 32 33 34 35 36 37 38 39 40 41 42 43 44 45 46 47 48 49 50
000
ASUS44 KMOB 311710
RWRMOB
REGIONAL WEATHER ROUNDUP
NATIONAL WEATHER SERVICE MOBILE AL
1100 AM CST SAT JAN 31 2015

NOTE: "FAIR" INDICATES FEW OR NO CLOUDS BELOW 12,000 FEET WITH NO
      SIGNIFICANT WEATHER AND/OR OBSTRUCTIONS TO VISIBILITY.

  * THESE STATIONS ARE PART OF THE UNIVERSITY OF SOUTH ALABAMA
    MESONET AND ARE NOT UNDER NWS OR FAA QUALITY CONTROL.

ALZ061>064-311800-
COASTAL ALABAMA

CITY           SKY/WX    TMP DP  RH WIND       PRES   REMARKS
MOBILE REG APT PTSUNNY   52  24  33 SE6       30.35F
BROOKLEY FIELD SUNNY     50  27  40 E3        30.37F
USA CAMPUS*    NOT AVBL
DOG RIVER*     NOT AVBL


CITY           SKY/WX    TMP DP  RH WIND       PRES   REMARKS
MOUNT VERNON*  NOT AVBL
SARALAND*      NOT AVBL
BAY MINETTE*   NOT AVBL
LOXLEY*        NOT AVBL
ROBERTSDALE*   NOT AVBL
FAIRHOPE*        N/A    N/A N/A N/A E9        30.34F
ELBERTA*         N/A     54  34  47 E8        30.34F
FOLEY*         NOT AVBL
GRAND BAY*     NOT AVBL
DAUPHIN ISLND* NOT AVBL
BON SCOUR NWR* NOT AVBL
GULF SHORES    SUNNY     54  39  55 E12       30.35S

$$

ALZ051>060-311800-
INTERIOR SOUTHWEST AND SOUTH CENTRAL ALABAMA

CITY           SKY/WX    TMP DP  RH WIND       PRES   REMARKS
GREENVILLE     SUNNY     53  22  29 SE5       30.35F
EVERGREEN      SUNNY     52  24  33 SE9       30.36F
CASTLEBERRY*   NOT AVBL
ATMORE*          N/A    N/A N/A N/A SE5       30.36F
DIXIE*           N/A    N/A N/A N/A CALM      30.33F
ANDALUSIA/OPP  SUNNY     57  25  29 SE6       30.36F
ANDALUSIA*       N/A    N/A N/A N/A E6        30.34F
FLORALA APT    SUNNY     54  27  35 E7        30.37F
FLORALA*         N/A    N/A N/A N/A NE6       30.33F

$$

FLZ001>006-311800-
WESTERN FLORIDA PANHANDLE

CITY           SKY/WX    TMP DP  RH WIND       PRES   REMARKS
PENSACOLA      SUNNY     51  28  41 SE8       30.35F
NAS PENSACOLA  MOSUNNY   55  38  52 E12       30.34F
MILTON         SUNNY     55  26  32 SE9       30.34F
WHTNG S FIELD  SUNNY     55  26  32 SE6       30.35F


CITY           SKY/WX    TMP DP  RH WIND       PRES   REMARKS
WALNUT HILL*   NOT AVBL
JAY*           NOT AVBL
DUKE FIELD     SUNNY     56  24  29 E8        30.34F
CRESTVIEW      SUNNY     56  27  32 MISG      30.36F
VALPARAISO     MOSUNNY   55  27  33 SE8       30.34F
DESTIN         SUNNY     54  32  43 VRB7      30.35F

$$

MSZ076-079-311800-
INTERIOR SOUTHEAST MISSISSIPPI

CITY           SKY/WX    TMP DP  RH WIND       PRES   REMARKS
LEAKESVILLE*   NOT AVBL
AGRICOLA*      NOT AVBL

$$

MARINE OBSERVATIONS

STATION/POSITION TIME  TEMP    WIND        PRES    WAVE
                       AIR SEA DIR/SP/G            HT/PER
                 (UTC) (F)     (DEG/KT/KT) (MB)    (FT/S)
PASCAGOULA       1700   54      80/  8/ 11 1027.2F
PETIT BOIS ISLND 1700   51      70/ 12/ 15 1027.7S
GRAND BAY        1600   48      80/ 10     1028.0S
KATRINA CUT      1600   50      70/ 15     1028.1S
CEDAR POINT      1600   47      50/ 10     1027.8R
E DAUPHIN ISLAND 1600   48      50/ 11/ 12 1027.5R
MIDDLE BAY LIGHT 1600   51      70/  5     1027.1S
USCG MOBILE BAY  1700   48 53  120/  2/  4 1026.9F
STATE DOCKS      1700   52 50              1027.5F
MEAHER PARK      1600   51     130/  5     1028.1F
WEEKS BAY        1600   48                   N/A
FORT MORGAN      1700   52      90/ 10/ 17 1026.8F
12 S ORANGE BCH  1700   56 62  100/ 14/ 17 1026.7S   4/ 6
PENSACOLA BAY    1700   56 55  150/  1/  4 1028.0F
64 S DAUPHIN ISL 1551   61 69  100/ 14/ 17 1026.5    4/ 6

$$

SELECTED LOCATIONS ACROSS THE REGION

CITY           SKY/WX    TMP DP  RH WIND       PRES   REMARKS
NEW ORLEANS    MOSUNNY   59  43  55 NE12      30.30F
GULFPORT       SUNNY     54  36  50 NE7       30.34F
PASCAGOULA AP  SUNNY     55  35  47 VRB7      30.35S
PASCAGOULA*    NOT AVBL
HATTIESBURG    SUNNY     51  26  37 SE7       30.35F
LAUREL         SUNNY     52  27  37 S8        30.35F
MERIDIAN       CLOUDY    49  23  36 E9        30.36S
JACKSON        PTSUNNY   50  24  36 SE8       30.34F
MONTGOMERY     SUNNY     50  23  34 SE9       30.39F
TROY           SUNNY     53  22  29 VRB6      30.37F
KINSTON*       NOT AVBL
GENEVA*        NOT AVBL
ASHFORD*         N/A    N/A N/A N/A E6        30.34F
DOTHAN         SUNNY     52  25  35 E9        30.40F
PANAMA CITY    SUNNY     56  28  34 NE7       30.34R

$$



USA.gov is the U.S. government's official web portal to all federal, state and local government web resources and services.